15 daagse weersverwachting Linz (AT)

  • Overzicht
  • Per uur
  • 15 dagen
  • Extra
  • Vergelijk
  • Kaarten
  • Dagkaart
  • Meer »
  • Info
  • Statistieken
  • Directe link
    Temp 6h Neerslag Wind  
 05:03     21:07    Daglengte: 16:04 Vandaag
14:00
28°
 
3
20:00
23°
3.8 mm
2
 05:03     21:07    Daglengte: 16:04 Morgen
02:00
19°
4.1 mm
2
08:00
19°
6.5 mm
2
14:00
25°
 
2
20:00
22°
 
3
 05:03     21:07    Daglengte: 16:04 Zaterdag 22 Jun
02:00
18°
 
2
08:00
19°
 
3
14:00
23°
1.4 mm
5
warningclass
20:00
20°
 
4
 05:04     21:07    Daglengte: 16:03 Zondag 23 Jun
02:00
18°
4.9 mm
3
08:00
19°
 
2
Locatie info
Region: OberŲsterreich
Latitude: 48.3042°N
Longitude: 14.2881°E
268 masl
Postcode: 4020
Temp/Neerslag /Baro Onweer/Dauwpunt
    Temp Baro 1h Neerslag Dauwpunt Wind UV Bewolking  
 05:03     21:07    Daglengte: 16:04 Vandaag
12:00
26°
1012.2 hPa   16.4°
3
Windvlaag: 1.1 km/h
31%
13:00
27°
1011.7 hPa   16.2°
3
Windvlaag: 0.5 km/h
18%
14:00
28°
1011.2 hPa
33%
15.7°
3
Windvlaag: 0.2 km/h
21%
15:00
28°
1011.1 hPa 0.3 mm
70%
15.9°
2
Windvlaag: 0 km/h
32% warningclass
16:00
27°
1011.0 hPa
82%
15.5°
1
Windvlaag: -1.2 km/h
52%
17:00
26°
1011.2 hPa 2.0 mm
82%
15.6°
2
Windvlaag: -0.7 km/h
79% warningclass
18:00
25°
1011.4 hPa 1.5 mm
82%
15.2°
2
Windvlaag: -0.5 km/h
66%
19:00
24°
1011.7 hPa
80%
16.5°
3
Windvlaag: -0.3 km/h
76%
20:00
23°
1012.3 hPa
78%
17.3°
2
Windvlaag: -0.1 km/h
58%
21:00
22°
1013.0 hPa 1.1 mm
72%
17.7°
2
Windvlaag: 0.1 km/h
55%
22:00
21°
1013.8 hPa
34%
18.1°
3
Windvlaag: -0 km/h
49%
23:00
20°
1014.1 hPa 1.0 mm
76%
18.1°
3
Windvlaag: -0.4 km/h
45%
 05:03     21:07    Daglengte: 16:04 Morgen
00:00
19°
1014.7 hPa
47%
18.1°
2
Windvlaag: -0.6 km/h
57%
01:00
19°
1015.1 hPa 1.2 mm
82%
18.1°
3
Windvlaag: 0.3 km/h
82%
02:00
19°
1015.3 hPa 0.9 mm
82%
17.9°
2
Windvlaag: 0.8 km/h
50%
03:00
18°
1015.3 hPa 1.5 mm
82%
17.8°
2
Windvlaag: 1.2 km/h
66%
04:00
18°
1015.5 hPa 2.3 mm
82%
17.7°
2
Windvlaag: 1 km/h
59%
05:00
18°
1015.7 hPa 2.7 mm
32%
17.4°
2
Windvlaag: 1 km/h
42%
06:00
18°
1016.0 hPa
15%
17.1°
2
Windvlaag: 0.8 km/h
36%
07:00
18°
1016.4 hPa
19%
17.1°
2
Windvlaag: 0.8 km/h
49%
08:00
19°
1016.7 hPa
21%
16.7°
2
Windvlaag: 0.6 km/h
68%
09:00
20°
1016.9 hPa
22%
16.6°
2
Windvlaag: 0.5 km/h
58%
10:00
21°
1017.0 hPa
37%
16.5°
2
Windvlaag: 0.5 km/h
60%
11:00
22°
1017.1 hPa
82%
16.1°
2
Windvlaag: 0.5 km/h
64%
12:00
23°
1017.0 hPa
44%
15.3°
2
Windvlaag: 0.5 km/h
61%
13:00
24°
1016.5 hPa
68%
15.1°
2
Windvlaag: 0.2 km/h
31%
14:00
25°
1015.9 hPa
27%
14.6°
2
Windvlaag: 0.1 km/h
38%
15:00
25°
1015.6 hPa
36%
14.0°
2
Windvlaag: 0.2 km/h
31%
16:00
25°
1015.2 hPa
82%
13.4°
2
Windvlaag: 0.4 km/h
32%
17:00
25°
1015.1 hPa
80%
13.3°
2
Windvlaag: 1.1 km/h
47%
18:00
25°
1015.2 hPa
80%
14.2°
3
Windvlaag: 1.7 km/h
77%
19:00
24°
1015.6 hPa
80%
15.0°
2
Windvlaag: 2.2 km/h
54%
20:00
22°
1016.1 hPa
74%
16.4°
3
Windvlaag: 1.2 km/h
62%
21:00
21°
1016.6 hPa
23%
16.8°
2
Windvlaag: 0.4 km/h
64%
22:00
20°
1017.4 hPa
21%
17.0°
2
Windvlaag: 0.3 km/h
60%
23:00
19°
1017.6 hPa
21%
16.6°
1
Windvlaag: -0.1 km/h
59%
 05:03     21:07    Daglengte: 16:04 Zaterdag 22 Jun
00:00
19°
1017.8 hPa
68%
16.4°
2
Windvlaag: -0.3 km/h
58%
01:00
18°
1017.9 hPa
69%
16.4°
1
Windvlaag: -0.4 km/h
52%
02:00
18°
1017.8 hPa
67%
16.5°
2
Windvlaag: -0.5 km/h
54%
03:00
18°
1017.8 hPa
15%
16.2°
2
Windvlaag: -1 km/h
48%
04:00
18°
1017.9 hPa
14%
16.3°
2
Windvlaag: -0.8 km/h
55%
05:00
17°
1018.2 hPa
21%
16.9°
2
Windvlaag: -0.7 km/h
71%
06:00
18°
1018.3 hPa
29%
17.4°
2
Windvlaag: -0.8 km/h
76%
07:00
18°
1018.5 hPa
24%
17.7°
2
Windvlaag: -0.7 km/h
84%
08:00
19°
1018.5 hPa
21%
17.7°
3
Windvlaag: -0.6 km/h
81%
09:00
20°
1018.2 hPa
21%
17.9°
3
Windvlaag: -0.7 km/h
79%
10:00
20°
1017.8 hPa
21%
18.1°
3
Windvlaag: 0.2 km/h
84%
11:00
21°
1017.4 hPa
21%
18.3°
4
Windvlaag: 0.8 km/h
80%
12:00
22°
1017.0 hPa 1.4 mm
21%
18.4°
4
Windvlaag: -0.5 km/h
76% warningclass
13:00
22°
1016.6 hPa
24%
18.6°
5
Windvlaag: -1.5 km/h
79%
14:00
23°
1016.1 hPa
94%
18.7°
5
Windvlaag: -0.9 km/h
75%
15:00
23°
1015.9 hPa
94%
18.8°
5
Windvlaag: -2.5 km/h
81%
16:00
22°
1015.7 hPa
84%
19.0°
5
Windvlaag: -2 km/h
87%
17:00
22°
1015.4 hPa
73%
18.9°
5
Windvlaag: -2.2 km/h
87%
18:00
21°
1015.3 hPa
25%
18.7°
4
Windvlaag: -3.1 km/h
89%
19:00
21°
1015.2 hPa
21%
18.4°
5
Windvlaag: -2.3 km/h
93%
20:00
20°
1015.2 hPa
21%
18.4°
4
Windvlaag: -1 km/h
95%
21:00
20°
1015.4 hPa
21%
18.0°
4
Windvlaag: -2.4 km/h
93%
22:00
19°
1015.5 hPa
21%
17.8°
4
Windvlaag: -2.2 km/h
89%
23:00
19°
1015.7 hPa 2.4 mm
21%
17.7°
3
Windvlaag: -3.3 km/h
87%
 05:04     21:07    Daglengte: 16:03 Zondag 23 Jun
00:00
18°
1015.9 hPa 2.5 mm
21%
17.5°
2
Windvlaag: -3.7 km/h
91%
01:00
18°
1016.1 hPa
21%
17.4°
3
Windvlaag: -3.3 km/h
85%
02:00
18°
1016.1 hPa
21%
17.4°
3
Windvlaag: -1.4 km/h
85%
03:00
18°
1016.2 hPa
21%
17.5°
2
Windvlaag: 4.3 km/h
69%
04:00
18°
1016.3 hPa
24%
17.4°
2
Windvlaag: 5.6 km/h
83%
05:00
18°
1016.5 hPa
23%
17.3°
2
Windvlaag: 6.4 km/h
87%
06:00
18°
1016.7 hPa
24%
17.3°
2
Windvlaag: 4.9 km/h
74%
07:00
19°
1016.9 hPa
24%
17.3°
2
Windvlaag: 6.2 km/h
75%
08:00
19°
1017.1 hPa
26%
17.3°
2
Windvlaag: 0.7 km/h
93%
09:00
19°
1016.9 hPa 18.1 mm
100%
17.4°
2
Windvlaag: 7.6 km/h
97%
10:00
20°
1017.1 hPa 18.9 mm
100%
17.5°
2
Windvlaag: 7.4 km/h
94%
11:00
20°
1017.4 hPa 19.9 mm
100%
17.6°
2
Windvlaag: 7 km/h
93%
Temp/Neerslag /Baro Onweer/Dauwpunt
    Temp Baro Neerslag Dauwpunt Wind Bewolking  
 05:03     21:07    Daglengte: 16:04 Vandaag
14:00
28°
1011.2 hPa   15.7°
3
21%
17:00
26°
1011.2 hPa 2.4 mm 15.6°
2
79% warningclass
20:00
23°
1012.3 hPa 1.5 mm 17.3°
2
58%
23:00
20°
1014.1 hPa 2.0 mm 18.1°
3
45%
 05:03     21:07    Daglengte: 16:04 Morgen
02:00
19°
1015.3 hPa 2.1 mm 17.9°
2
50%
05:00
18°
1015.7 hPa 6.5 mm 17.4°
2
42%
08:00
19°
1016.7 hPa   16.7°
2
68%
11:00
22°
1017.1 hPa   16.1°
2
64%
14:00
25°
1015.9 hPa   14.6°
2
38%
17:00
25°
1015.1 hPa   13.3°
2
47%
20:00
22°
1016.1 hPa   16.4°
3
62%
23:00
19°
1017.6 hPa   16.6°
1
59%
 05:03     21:07    Daglengte: 16:04 Zaterdag 22 Jun
02:00
18°
1017.8 hPa   16.5°
2
54%
05:00
17°
1018.2 hPa   16.9°
2
71%
08:00
19°
1018.5 hPa   17.7°
3
81%
11:00
21°
1017.4 hPa   18.3°
4
80%
14:00
23°
1016.1 hPa 1.4 mm 18.7°
5
75% warningclass
17:00
22°
1015.4 hPa   18.9°
5
87%
20:00
20°
1015.2 hPa   18.4°
4
95%
23:00
19°
1015.7 hPa 2.4 mm 17.7°
3
87%
 05:04     21:07    Daglengte: 16:03 Zondag 23 Jun
02:00
18°
1016.1 hPa 2.5 mm 17.4°
3
85%
05:00
18°
1016.5 hPa   17.3°
2
87%
08:00
19°
1017.1 hPa   17.3°
2
93%
11:00
20°
1017.4 hPa 57.0 mm 17.6°
2
93%
14:00
21°
1018.0 hPa 64.7 mm 17.9°
3
89%
17:00
21°
1019.4 hPa 73.0 mm 19.0°
2
78%
20:00
21°
1020.0 hPa 74.7 mm 19.6°
1
74%
23:00
19°
1020.9 hPa 74.9 mm 17.4°
1
74%
 05:04     21:07    Daglengte: 16:03 Maandag 24 Jun
02:00
18°
1021.6 hPa 74.9 mm 15.3°
1
74%
05:00
18°
1022.2 hPa 74.9 mm 14.8°
1
81%
08:00
19°
1022.8 hPa 74.9 mm 14.5°
2
87%
11:00
22°
1022.6 hPa 74.9 mm 15.6°
2
85%
14:00
25°
1022.3 hPa 74.9 mm 16.5°
2
83%
17:00
25°
1022.1 hPa 74.9 mm 18.1°
1
45%
20:00
24°
1022.1 hPa 74.9 mm 19.5°
1
7%
23:00
21°
1023.3 hPa 74.9 mm 16.9°
2
14%
 05:04     21:08    Daglengte: 16:04 Dinsdag 25 Jun
02:00
18°
1024.4 hPa 74.9 mm 14.4°
2
21%
05:00
19°
1024.7 hPa 74.9 mm 14.4°
2
36%
08:00
21°
1025.1 hPa 74.9 mm 14.5°
3
50%
11:00
24°
1024.3 hPa 74.9 mm 16.1°
3
25%
14:00
28°
1023.5 hPa 74.9 mm 17.2°
4
0%
17:00
27°
1023.1 hPa 74.9 mm 18.1°
3
0%
20:00
25°
1022.9 hPa 74.9 mm 18.5°
3
0%
23:00
23°
1023.6 hPa 74.9 mm 17.4°
3
0%
 05:05     21:08    Daglengte: 16:03 Woensdag 26 Jun
02:00
21°
1024.1 hPa 74.9 mm 16.3°
4
0%
05:00
22°
1023.7 hPa 74.9 mm 16.8°
4
0%
08:00
23°
1023.3 hPa 74.9 mm 17.7°
5
0%
11:00
27°
1022.3 hPa 74.9 mm 19.3°
5
0%
14:00
30°
1021.4 hPa 74.9 mm 20.5°
5
0%
17:00
29°
1020.5 hPa 74.9 mm 20.5°
4
0%
20:00
27°
1019.8 hPa 74.9 mm 20.4°
4
0%
23:00
25°
1020.1 hPa 74.9 mm 19.4°
3
0%
 05:05     21:07    Daglengte: 16:02 Donderdag 27 Jun
02:00
22°
1020.2 hPa 74.9 mm 18.1°
2
0%
05:00
22°
1020.1 hPa 74.9 mm 18.3°
2
0%
08:00
23°
1020.0 hPa 74.9 mm 18.8°
2
0%
11:00
27°
1019.1 hPa   20.4°
1
1%
14:00
31°
1018.1 hPa 149.8 mm 21.4°
0
2%
20:00
29°
1016.3 hPa 149.8 mm 24.0°
1
0%
 05:06     21:07    Daglengte: 16:01 Vrijdag 28 Jun
02:00
21°
1017.6 hPa 149.8 mm 18.6°
2
0%
08:00
25°
1017.4 hPa 149.8 mm 19.8°
1
0%
14:00
34°
1015.1 hPa 149.8 mm 19.9°
2
0%
20:00
32°
1012.9 hPa 149.8 mm 20.4°
1
1%
 05:06     21:07    Daglengte: 16:01 Zaterdag 29 Jun
02:00
26°
1013.6 hPa 149.8 mm 18.2°
1
0%
08:00
21°
1013.4 hPa 149.9 mm 18.5°
1
0%
14:00
30°
1012.4 hPa 151.0 mm 23.1°
3
1%
20:00
26°
1013.2 hPa 154.8 mm 23.4°
2
1%
 05:07     21:07    Daglengte: 16:00 Zondag 30 Jun
02:00
21°
1015.8 hPa 161.9 mm 19.9°
1
1%
08:00
23°
1015.4 hPa 0.8 mm 18.2°
1
30%
14:00
30°
1014.2 hPa 0.4 mm 17.4°
2
25%
20:00
26°
1014.0 hPa 1.1 mm 20.8°
1
27%
 05:07     21:07    Daglengte: 16:00 Maandag 01 Jul
02:00
19°
1014.9 hPa 0.7 mm 16.4°
1
35%
08:00
22°
1014.6 hPa 0.5 mm 17.8°
1
37%
14:00
28°
1012.9 hPa 1.1 mm 17.8°
2
34%
20:00
24°
1012.9 hPa 1.5 mm 19.2°
1
48%
 05:08     21:07    Daglengte: 15:59 Dinsdag 02 Jul
02:00
17°
1013.5 hPa 1.6 mm 15.6°
1
47%
08:00
19°
1013.4 hPa 2.3 mm 16.4°
2
49%
14:00
24°
1012.6 hPa 2.0 mm 16.3°
2
52%
20:00
21°
1012.7 hPa 1.4 mm 17.2°
2
49%
 05:09     21:06    Daglengte: 15:57 Woensdag 03 Jul
02:00
15°
1013.7 hPa 1.0 mm 14.3°
1
54%
08:00
17°
1013.9 hPa 1.8 mm 15.0°
1
58%
14:00
22°
1013.0 hPa 1.9 mm 15.5°
1
56%
20:00
20°
1012.9 hPa 2.1 mm 16.7°
1
62%
 05:10     21:06    Daglengte: 15:56 Donderdag 04 Jul
02:00
15°
1014.0 hPa 2.9 mm 13.7°
1
59%
08:00
17°
1014.8 hPa 1.7 mm 14.3°
2
50%
14:00
23°
1014.0 hPa 0.8 mm 14.3°
2
46%
20:00
21°
1014.0 hPa 1.1 mm 15.8°
1
47%
 05:10     21:06    Daglengte: 15:56 Vrijdag 05 Jul
02:00
14°
1015.5 hPa 0.6 mm 13.0°
1
45%
08:00
17°
1016.1 hPa 1.1 mm 14.1°
2
49%
  CAPE Lifted Index Hail Supercell Tornado SRH 3km CL BTM PRES CL TOP PRES Swiss DWD icon SMHI TS
 05:03     21:07    Daglengte: 16:04 Vandaag
12:00 1231 J/kg -4.8 K 0 % 0 % 0 % 0 m²/s² 0 0 -2.88 0
13:00 1578 J/kg -5.9 K 0 % 0 % 0 % 0 m²/s² 0 0 -3.92 1
14:00 1603 J/kg -6.0 K 0 % 0 % 0 % 0 m²/s² 0 0 -4.02 1
15:00 1638 J/kg -6.2 K 0 % 0 % 0 % 0 m²/s² 0 0 -4.52 1
16:00 1638 J/kg -6.1 K 0 % 0 % 0 % 0 m²/s² 0 0 -5.23 80
17:00 643 J/kg -4.3 K 0 % 0 % 0 % 0 m²/s² 0 0 -3.58 80
18:00 189 J/kg -2.4 K 0 % 0 % 0 % 0 m²/s² 0 0 -1.68 3
19:00 0 J/kg 0.3 K 0 % 0 % 0 % 0 m²/s² 0 0 1.8 3
20:00 1 J/kg 1.3 K 0 % 0 % 0 % 0 m²/s² 0 0 2.5 3
21:00 0 J/kg -0.7 K 0 % 0 % 0 % 0 m²/s² 0 0 0.62 3
22:00 4 J/kg -1.1 K 0 % 0 % 0 % 0 m²/s² 0 0 -0.23 2
23:00 0 J/kg -0.9 K 0 % 0 % 0 % 0 m²/s² 0 0 -0.36 2
 05:03     21:07    Daglengte: 16:04 Morgen
00:00 0 J/kg -0.7 K 0 % 0 % 0 % 0 m²/s² 0 0 0.2 3
01:00 0 J/kg 0.0 K 0 % 0 % 0 % 0 m²/s² 0 0 1.32 3
02:00 0 J/kg 0.7 K 0 % 0 % 0 % 0 m²/s² 0 0 1.96 80
03:00 0 J/kg 0.1 K 0 % 0 % 0 % 0 m²/s² 0 0 1.69 3
04:00 0 J/kg 0.7 K 0 % 0 % 0 % 0 m²/s² 0 0 2.68 2
05:00 0 J/kg 1.3 K 0 % 0 % 0 % 0 m²/s² 0 0 3.4 3
06:00 0 J/kg 1.2 K 0 % 0 % 0 % 0 m²/s² 0 0 3.51 3
07:00 0 J/kg 1.0 K 0 % 0 % 0 % 0 m²/s² 0 0 3.61 2
08:00 2 J/kg 1.0 K 0 % 0 % 0 % 0 m²/s² 0 0 3.67 3
09:00 1 J/kg 0.7 K 0 % 0 % 0 % 0 m²/s² 0 0 3.37 3
10:00 48 J/kg -0.3 K 0 % 0 % 0 % 0 m²/s² 0 0 2.61 3
11:00 246 J/kg -1.1 K 0 % 0 % 0 % 0 m²/s² 0 0 1.72 3
12:00 325 J/kg -1.2 K 0 % 0 % 0 % 0 m²/s² 0 0 1.56 2
13:00 279 J/kg -1.2 K 0 % 0 % 0 % 0 m²/s² 0 0 1.65 1
14:00 211 J/kg -1.0 K 0 % 0 % 0 % 0 m²/s² 0 0 1.91 2
15:00 185 J/kg -1.1 K 0 % 0 % 0 % 0 m²/s² 0 0 1.42 2
16:00 264 J/kg -1.4 K 0 % 0 % 0 % 0 m²/s² 0 0 0.79 1
17:00 343 J/kg -1.6 K 0 % 0 % 0 % 0 m²/s² 0 0 -0.19 1
18:00 219 J/kg -1.3 K 0 % 0 % 0 % 0 m²/s² 0 0 -0.64 2
19:00 0 J/kg -0.5 K 0 % 0 % 0 % 0 m²/s² 0 0 0.37 3
20:00 0 J/kg 0.3 K 0 % 0 % 0 % 0 m²/s² 0 0 1.32 3
21:00 0 J/kg 1.5 K 0 % 0 % 0 % 0 m²/s² 0 0 2.25 3
22:00 0 J/kg 1.8 K 0 % 0 % 0 % 0 m²/s² 0 0 2.43 3
23:00 0 J/kg 1.1 K 0 % 0 % 0 % 0 m²/s² 0 0 1.85 3
 05:03     21:07    Daglengte: 16:04 Zaterdag 22 Jun
00:00 0 J/kg 0.9 K 0 % 0 % 0 % 0 m²/s² 0 0 1.38 3
01:00 0 J/kg 0.9 K 0 % 0 % 0 % 0 m²/s² 0 0 1.62 2
02:00 0 J/kg 0.7 K 0 % 0 % 0 % 0 m²/s² 0 0 1.57 2
03:00 0 J/kg 0.5 K 0 % 0 % 0 % 0 m²/s² 0 0 1.13 2
04:00 0 J/kg -0.4 K 0 % 0 % 0 % 0 m²/s² 0 0 -0.4 2
05:00 0 J/kg -1.4 K 0 % 0 % 0 % 0 m²/s² 0 0 -1.28 3
06:00 0 J/kg -1.4 K 0 % 0 % 0 % 0 m²/s² 0 0 -0.53 3
07:00 105 J/kg -1.5 K 0 % 0 % 0 % 0 m²/s² 0 0 -0.96 3
08:00 617 J/kg -2.6 K 0 % 0 % 0 % 0 m²/s² 0 0 -1.88 3
09:00 931 J/kg -3.6 K 0 % 0 % 0 % 0 m²/s² 0 0 -2.22 3
10:00 1037 J/kg -4.1 K 0 % 0 % 0 % 0 m²/s² 0 0 -2.54 3
11:00 1331 J/kg -5.0 K 0 % 0 % 0 % 0 m²/s² 0 0 -3.8 3
12:00 1656 J/kg -5.8 K 0 % 0 % 0 % 0 m²/s² 0 0 -4.42 2
13:00 1868 J/kg -6.3 K 0 % 0 % 0 % 0 m²/s² 0 0 -4.65 3
14:00 2103 J/kg -7.0 K 0 % 0 % 0 % 0 m²/s² 0 0 -5.44 1
15:00 2277 J/kg -7.5 K 0 % 0 % 0 % 0 m²/s² 0 0 -6.18 1
16:00 2107 J/kg -6.6 K 0 % 0 % 0 % 0 m²/s² 0 0 -5.16 3
17:00 1291 J/kg -4.3 K 0 % 0 % 0 % 0 m²/s² 0 0 -3.07 3
18:00 505 J/kg -2.3 K 0 % 0 % 0 % 0 m²/s² 0 0 -1.64 3
19:00 32 J/kg -0.1 K 0 % 0 % 0 % 0 m²/s² 0 0 0.56 3
20:00 0 J/kg 0.9 K 0 % 0 % 0 % 0 m²/s² 0 0 1.2 3
21:00 0 J/kg 1.0 K 0 % 0 % 0 % 0 m²/s² 0 0 1.54 3
22:00 0 J/kg 1.6 K 0 % 0 % 0 % 0 m²/s² 0 0 2.32 3
23:00 0 J/kg 1.7 K 0 % 0 % 0 % 0 m²/s² 0 0 2.51 3
 05:04     21:07    Daglengte: 16:03 Zondag 23 Jun
00:00 0 J/kg 1.6 K 0 % 0 % 0 % 0 m²/s² 0 0 2.26 3
01:00 0 J/kg 1.5 K 0 % 0 % 0 % 0 m²/s² 0 0 1.98 2
02:00 0 J/kg 1.8 K 0 % 0 % 0 % 0 m²/s² 0 0 2.52 2
03:00 0 J/kg 2.1 K 0 % 0 % 0 % 0 m²/s² 0 0 2.64 3
04:00 0 J/kg 1.5 K 0 % 0 % 0 % 0 m²/s² 0 0 1.59 3
05:00 0 J/kg 1.5 K 0 % 0 % 0 % 0 m²/s² 0 0 1.62 3
06:00 0 J/kg 0.8 K 0 % 0 % 0 % 0 m²/s² 0 0 1.16 3
07:00 37 J/kg 0.7 K 0 % 0 % 0 % 0 m²/s² 0 0 0.82 3
08:00 48 J/kg 0.9 K 0 % 0 % 0 % 0 m²/s² 0 0 0.9 3
09:00 59 J/kg 0.7 K 0 % 0 % 0 % 0 m²/s² 0 0 0.79
10:00 123 J/kg 1.1 K 0 % 0 % 0 % 0 m²/s² 0 0 1.13
11:00 134 J/kg 0.7 K 0 % 0 % 0 % 0 m²/s² 0 0 0.79
Temp Baro Wind Neerslag
  EWN Forecast EWN WRFDA DWD ICON FMI HIRLAM MET Norway GFS
 05:03     21:07    Daglengte: 16:04 Vandaag
14:00 27.8° 1011.2 hPa 2.7 m/s 0.0 mm 26.5° 1011.8 hPa 4.2 m/s 0.1 mm 28.4° 1011.3 hPa 3.2 m/s -2.0 mm 30.3° 1010.7 hPa 2.4 m/s 0.0 mm 27.6° 1011.1 hPa 0.9 m/s 0.9 mm 25.5° 1012.1 hPa 1.1 m/s
17:00 25.9° 1011.2 hPa 2.0 m/s 2.4 mm 21.7° 1012.3 hPa 4.9 m/s 4.7 mm 22.5° 1012.5 hPa 2.5 m/s 1.6 mm 30.8° 1009.3 hPa 2.0 m/s 0.0 mm 26.2° 1011.2 hPa 1.6 m/s 0.3 mm 24.3° 1012.3 hPa 4.2 m/s
20:00 23.5° 1012.3 hPa 2.1 m/s 1.5 mm 19.2° 1013.4 hPa 3.0 m/s 11.8 mm 20.3° 1014.0 hPa 1.8 m/s 0.8 mm 26.9° 1010.1 hPa 2.0 m/s 0.0 mm 23.8° 1012.3 hPa 3.2 m/s 0.0 mm 18.9° 1014.1 hPa 1.0 m/s
23:00 20.0° 1014.1 hPa 2.8 m/s 2.0 mm 16.4° 1013.8 hPa 1.6 m/s 11.9 mm 18.9° 1014.9 hPa 1.5 m/s 0.8 mm 22.4° 1012.3 hPa 3.5 m/s 0.0 mm 19.9° 1015.1 hPa 4.2 m/s 0.7 mm 16.5° 1015.5 hPa 1.2 m/s
 05:03     21:07    Daglengte: 16:04 Morgen
02:00 18.6° 1015.3 hPa 2.1 m/s 2.1 mm 14.9° 1015.4 hPa 2.7 m/s 11.9 mm 17.7° 1016.0 hPa 1.3 m/s 0.5 mm 20.7° 1012.7 hPa 1.9 m/s 0.0 mm 18.6° 1015.9 hPa 2.1 m/s 2.1 mm 16.2° 1016.7 hPa 1.7 m/s
05:00 18.0° 1015.7 hPa 2.1 m/s 6.5 mm 14.6° 1014.9 hPa 2.5 m/s 11.9 mm 16.6° 1016.4 hPa 1.4 m/s 0.1 mm 20.4° 1013.5 hPa 2.9 m/s 0.0 mm 18.2° 1016.3 hPa 1.5 m/s 1.8 mm 15.2° 1016.7 hPa 0.9 m/s
08:00 19.0° 1016.7 hPa 2.3 m/s 0.0 mm 16.4° 1015.9 hPa 1.9 m/s 11.9 mm 18.9° 1017.1 hPa 2.0 m/s 0.0 mm 19.3° 1015.7 hPa 4.6 m/s 0.0 mm 20.0° 1017.0 hPa 1.9 m/s 0.0 mm 18.1° 1017.3 hPa 0.9 m/s
11:00 21.6° 1017.1 hPa 2.3 m/s 0.0 mm 21.3° 1016.4 hPa 2.9 m/s 11.9 mm 22.4° 1017.1 hPa 2.4 m/s 0.0 mm 20.2° 1017.5 hPa 2.8 m/s 0.0 mm 23.1° 1017.1 hPa 1.7 m/s 0.0 mm 22.9° 1017.0 hPa 2.1 m/s
14:00 24.5° 1015.9 hPa 2.2 m/s 0.0 mm 25.5° 1014.7 hPa 1.7 m/s 11.9 mm 25.1° 1016.6 hPa 2.3 m/s 0.0 mm 23.5° 1016.0 hPa 3.2 m/s 0.0 mm 26.3° 1015.0 hPa 2.1 m/s 0.0 mm 24.6° 1016.1 hPa 2.5 m/s
17:00 25.2° 1015.1 hPa 2.3 m/s 0.0 mm 26.0° 1014.7 hPa 2.3 m/s 11.9 mm 25.1° 1015.7 hPa 2.5 m/s 0.0 mm 25.1° 1015.0 hPa 3.7 m/s 0.0 mm 26.9° 1014.3 hPa 2.1 m/s 0.0 mm 25.5° 1015.8 hPa 1.0 m/s
20:00 22.3° 1016.1 hPa 2.8 m/s 0.0 mm 18.4° 1015.9 hPa 3.0 m/s 12.1 mm 22.8° 1016.8 hPa 1.9 m/s 0.1 mm 23.5° 1015.3 hPa 3.2 m/s 0.0 mm 22.7° 1015.8 hPa 3.1 m/s 0.0 mm 21.3° 1016.3 hPa 1.2 m/s
23:00 19.4° 1017.6 hPa 1.5 m/s 0.0 mm 17.3° 1017.2 hPa 1.0 m/s 12.2 mm 19.1° 1018.0 hPa 1.1 m/s 0.0 mm 20.1° 1016.5 hPa 5.1 m/s 0.0 mm 19.9° 1017.6 hPa 1.1 m/s 0.0 mm 17.8° 1018.1 hPa 1.7 m/s
 05:03     21:07    Daglengte: 16:04 Zaterdag 22 Jun
02:00 18.1° 1017.8 hPa 1.7 m/s 0.0 mm 16.7° 1016.5 hPa 1.6 m/s 12.2 mm 17.7° 1018.6 hPa 1.3 m/s 0.2 mm 18.6° 1016.0 hPa 4.2 m/s 0.0 mm 18.6° 1018.0 hPa 1.1 m/s 0.9 mm 17.1° 1018.1 hPa 0.6 m/s
05:00 17.3° 1018.2 hPa 1.7 m/s 0.0 mm 16.8° 1016.1 hPa 2.6 m/s 12.2 mm 17.2° 1019.0 hPa 1.8 m/s 0.0 mm 18.1° 1018.3 hPa 0.6 m/s 3.2 mm 16.6° 1017.5 hPa 2.2 m/s
08:00 18.9° 1018.5 hPa 2.9 m/s 0.0 mm 20.6° 1016.1 hPa 5.4 m/s 12.2 mm 19.9° 1019.0 hPa 3.2 m/s 0.0 mm 18.8° 1018.6 hPa 1.0 m/s 1.9 mm 18.5° 1017.7 hPa 3.3 m/s
11:00 21.1° 1017.4 hPa 3.6 m/s 0.0 mm 24.7° 1015.3 hPa 6.2 m/s 12.2 mm 23.7° 1018.1 hPa 4.9 m/s 0.0 mm 20.6° 1017.5 hPa 2.2 m/s 21.8° 1016.5 hPa 5.4 m/s
14:00 23.0° 1016.1 hPa 5.1 m/s 1.4 mm 26.3° 1013.4 hPa 6.8 m/s 12.2 mm 26.1° 1016.4 hPa 5.7 m/s 0.1 mm 22.5° 1016.3 hPa 3.4 m/s 23.6° 1015.3 hPa 5.4 m/s
17:00 21.8° 1015.4 hPa 5.0 m/s 0.0 mm 23.4° 1012.6 hPa 7.2 m/s 15.7 mm 25.4° 1015.0 hPa 5.2 m/s 0.1 mm 21.4° 1015.7 hPa 3.1 m/s 21.1° 1014.2 hPa 4.4 m/s
20:00 20.3° 1015.2 hPa 4.4 m/s 0.0 mm 18.8° 1014.5 hPa 8.6 m/s 19.0 mm 23.4° 1015.4 hPa 4.3 m/s 0.0 mm 20.3° 1015.1 hPa 2.9 m/s 18.6° 1014.8 hPa 3.3 m/s
23:00 18.9° 1015.7 hPa 2.7 m/s 2.4 mm 17.7° 1014.6 hPa 2.2 m/s 20.9 mm 20.1° 1016.0 hPa 4.7 m/s 0.0 mm 19.1° 1015.7 hPa 1.9 m/s 17.8° 1015.6 hPa 1.1 m/s
 05:04     21:07    Daglengte: 16:03 Zondag 23 Jun
02:00 17.9° 1016.1 hPa 2.7 m/s 2.5 mm 17.3° 1014.3 hPa 2.8 m/s 21.0 mm 18.7° 1016.8 hPa 4.5 m/s 0.0 mm 18.0° 1016.2 hPa 1.0 m/s 17.1° 1016.0 hPa 1.8 m/s
05:00 18.1° 1016.5 hPa 2.1 m/s 0.0 mm 16.9° 1013.5 hPa 3.1 m/s 27.8 mm 18.0° 1017.5 hPa 3.4 m/s 0.0 mm 18.4° 1016.7 hPa 1.1 m/s 16.5° 1016.8 hPa 1.8 m/s
08:00 18.6° 1017.1 hPa 2.1 m/s 0.0 mm 17.8° 1014.4 hPa 2.7 m/s 41.8 mm 18.8° 1019.1 hPa 3.4 m/s 0.0 mm 18.7° 1017.1 hPa 1.2 m/s 16.5° 1018.0 hPa 2.2 m/s
11:00 20.0° 1017.4 hPa 2.3 m/s 57.0 mm 19.5° 1015.1 hPa 3.9 m/s 57.0 mm 20.0° 1017.8 hPa 2.0 m/s 16.9° 1019.1 hPa 1.2 m/s
14:00 21.5° 1018.0 hPa 3.0 m/s 64.7 mm 21.9° 1015.4 hPa 3.3 m/s 64.7 mm 21.4° 1018.4 hPa 2.9 m/s 17.9° 1019.3 hPa 0.6 m/s
17:00 21.1° 1019.4 hPa 1.5 m/s 73.0 mm 21.1° 1019.4 hPa 1.6 m/s 20.7° 1019.1 hPa 1.0 m/s 73.0 mm
20:00 20.9° 1020.0 hPa 0.9 m/s 74.7 mm 21.0° 1019.9 hPa 0.9 m/s 19.6° 1020.8 hPa 1.3 m/s 74.7 mm
23:00 19.2° 1020.9 hPa 1.1 m/s 74.9 mm 19.4° 1020.7 hPa 0.9 m/s 16.1° 1022.8 hPa 2.6 m/s 74.9 mm
 05:04     21:07    Daglengte: 16:03 Maandag 24 Jun
02:00 17.6° 1021.6 hPa 1.1 m/s 74.9 mm 17.9° 1021.5 hPa 1.0 m/s 14.5° 1023.1 hPa 2.0 m/s 74.9 mm
05:00 18.3° 1022.2 hPa 1.4 m/s 74.9 mm 18.8° 1022.1 hPa 1.4 m/s 13.6° 1022.6 hPa 1.9 m/s 74.9 mm
08:00 19.4° 1022.8 hPa 1.8 m/s 74.9 mm 19.6° 1022.8 hPa 1.8 m/s 17.7° 1023.2 hPa 1.8 m/s 74.9 mm
11:00 22.5° 1022.6 hPa 2.0 m/s 74.9 mm 22.5° 1022.5 hPa 1.9 m/s 22.6° 1023.0 hPa 2.9 m/s 74.9 mm
14:00 25.3° 1022.3 hPa 2.1 m/s 74.9 mm 25.3° 1022.3 hPa 2.0 m/s 25.2° 1022.3 hPa 3.3 m/s 74.9 mm
17:00 24.8° 1022.1 hPa 1.5 m/s 74.9 mm 24.6° 1022.1 hPa 1.4 m/s 26.0° 1021.9 hPa 2.9 m/s 74.9 mm
20:00 23.9° 1022.1 hPa 0.8 m/s 74.9 mm 24.0° 1022.0 hPa 0.7 m/s 22.3° 1023.0 hPa 2.4 m/s 74.9 mm
23:00 20.8° 1023.3 hPa 1.5 m/s 74.9 mm 21.1° 1023.1 hPa 1.4 m/s 18.1° 1025.1 hPa 2.8 m/s 74.9 mm
 05:04     21:08    Daglengte: 16:04 Dinsdag 25 Jun
02:00 18.0° 1024.4 hPa 2.2 m/s 74.9 mm 18.1° 1024.3 hPa 2.1 m/s 16.9° 1025.2 hPa 3.0 m/s 74.9 mm
05:00 19.2° 1024.7 hPa 2.3 m/s 74.9 mm 19.5° 1024.7 hPa 2.3 m/s 15.9° 1024.8 hPa 2.7 m/s 74.9 mm
08:00 20.7° 1025.1 hPa 2.6 m/s 74.9 mm 20.8° 1025.1 hPa 2.5 m/s 20.1° 1025.4 hPa 3.5 m/s 74.9 mm
11:00 24.4° 1024.3 hPa 3.1 m/s 74.9 mm 24.4° 1024.2 hPa 3.0 m/s 24.7° 1024.8 hPa 4.3 m/s 74.9 mm
14:00 28.0° 1023.5 hPa 3.6 m/s 74.9 mm 28.0° 1023.4 hPa 3.5 m/s 27.5° 1024.3 hPa 4.5 m/s 74.9 mm
17:00 26.8° 1023.1 hPa 3.2 m/s 74.9 mm 26.8° 1023.0 hPa 3.1 m/s 27.4° 1023.8 hPa 3.8 m/s 74.9 mm
20:00 25.3° 1022.9 hPa 2.8 m/s 74.9 mm 25.6° 1022.7 hPa 2.8 m/s 22.5° 1024.9 hPa 2.6 m/s 74.9 mm
23:00 23.0° 1023.6 hPa 3.3 m/s 74.9 mm 23.5° 1023.2 hPa 3.4 m/s 18.0° 1027.1 hPa 2.2 m/s 74.9 mm
 05:05     21:08    Daglengte: 16:03 Woensdag 26 Jun
02:00 20.9° 1024.1 hPa 3.8 m/s 74.9 mm 21.3° 1023.8 hPa 4.0 m/s 16.6° 1027.1 hPa 1.9 m/s 74.9 mm
05:00 21.7° 1023.7 hPa 4.3 m/s 74.9 mm 22.4° 1023.4 hPa 4.6 m/s 15.0° 1026.8 hPa 1.5 m/s 74.9 mm
08:00 23.1° 1023.3 hPa 4.9 m/s 74.9 mm 23.4° 1023.0 hPa 5.2 m/s 19.7° 1026.5 hPa 1.8 m/s 74.9 mm
11:00 26.9° 1022.3 hPa 5.0 m/s 74.9 mm 27.0° 1022.0 hPa 5.2 m/s 24.8° 1025.6 hPa 3.0 m/s 74.9 mm
14:00 30.4° 1021.4 hPa 5.0 m/s 74.9 mm 30.7° 1021.1 hPa 5.2 m/s 27.5° 1024.4 hPa 3.4 m/s 74.9 mm
17:00 29.1° 1020.5 hPa 4.4 m/s 74.9 mm 29.3° 1020.3 hPa 4.5 m/s 27.2° 1023.0 hPa 3.2 m/s 74.9 mm
20:00 27.5° 1019.8 hPa 3.8 m/s 74.9 mm 27.9° 1019.5 hPa 3.9 m/s 22.7° 1023.0 hPa 2.5 m/s 74.9 mm
23:00 24.5° 1020.1 hPa 3.0 m/s 74.9 mm 25.0° 1019.7 hPa 3.1 m/s 18.5° 1024.2 hPa 2.1 m/s 74.9 mm
 05:05     21:07    Daglengte: 16:02 Donderdag 27 Jun
02:00 21.8° 1020.2 hPa 2.3 m/s 74.9 mm 22.2° 1019.9 hPa 2.3 m/s 17.1° 1023.9 hPa 1.9 m/s 74.9 mm
05:00 22.1° 1020.1 hPa 2.1 m/s 74.9 mm 22.6° 1019.8 hPa 2.1 m/s 15.8° 1023.1 hPa 1.8 m/s 74.9 mm
08:00 22.9° 1020.0 hPa 1.9 m/s 74.9 mm 23.1° 1019.8 hPa 1.9 m/s 20.2° 1022.7 hPa 1.8 m/s 74.9 mm
11:00 26.9° 1019.1 hPa 1.2 m/s 74.9 mm 27.1° 1018.8 hPa 1.0 m/s 25.2° 1021.8 hPa 2.7 m/s 74.9 mm
14:00 30.9° 1018.1 hPa 0.4 m/s 74.9 mm 31.1° 1017.9 hPa 0.2 m/s 28.3° 1020.4 hPa 2.7 m/s 74.9 mm
20:00 29.0° 1016.3 hPa 1.4 m/s 74.9 mm 29.5° 1016.0 hPa 1.3 m/s 23.8° 1019.4 hPa 2.4 m/s 74.9 mm
 05:06     21:07    Daglengte: 16:01 Vrijdag 28 Jun
02:00 21.4° 1017.6 hPa 1.9 m/s 74.9 mm 21.8° 1017.4 hPa 1.9 m/s 17.5° 1019.8 hPa 1.8 m/s 74.9 mm
08:00 24.6° 1017.4 hPa 1.0 m/s 74.9 mm 24.9° 1017.4 hPa 0.8 m/s 21.2° 1017.9 hPa 2.7 m/s 74.9 mm
14:00 33.6° 1015.1 hPa 2.4 m/s 74.9 mm 33.9° 1015.1 hPa 2.2 m/s 30.5° 1014.9 hPa 5.2 m/s 74.9 mm
20:00 31.8° 1012.9 hPa 1.0 m/s 74.9 mm 32.4° 1012.8 hPa 0.6 m/s 25.0° 1013.5 hPa 5.6 m/s 74.9 mm
 05:06     21:07    Daglengte: 16:01 Zaterdag 29 Jun
02:00 25.7° 1013.6 hPa 0.8 m/s 74.9 mm 26.3° 1013.5 hPa 0.7 m/s 19.0° 1014.5 hPa 2.5 m/s 74.9 mm
08:00 21.1° 1013.4 hPa 1.2 m/s 75.0 mm 21.1° 1013.4 hPa 1.2 m/s 75.0 mm
14:00 30.2° 1012.4 hPa 2.7 m/s 75.7 mm 30.2° 1012.4 hPa 2.7 m/s 75.7 mm
20:00 26.3° 1013.2 hPa 2.3 m/s 78.2 mm 26.3° 1013.2 hPa 2.3 m/s 78.2 mm
 05:07     21:07    Daglengte: 16:00 Zondag 30 Jun
02:00 20.7° 1015.8 hPa 0.8 m/s 83.0 mm 20.7° 1015.8 hPa 0.8 m/s 83.0 mm
08:00 22.8° 1015.4 hPa 0.9 m/s 0.8 mm
14:00 30.3° 1014.2 hPa 1.7 m/s 0.4 mm
20:00 26.4° 1014.0 hPa 0.8 m/s 1.1 mm
 05:07     21:07    Daglengte: 16:00 Maandag 01 Jul
02:00 18.6° 1014.9 hPa 0.9 m/s 0.7 mm
08:00 21.9° 1014.6 hPa 1.2 m/s 0.5 mm
14:00 27.8° 1012.9 hPa 2.4 m/s 1.1 mm
20:00 23.6° 1012.9 hPa 1.4 m/s 1.5 mm
 05:08     21:07    Daglengte: 15:59 Dinsdag 02 Jul
02:00 16.9° 1013.5 hPa 1.4 m/s 1.6 mm
08:00 19.0° 1013.4 hPa 1.8 m/s 2.3 mm
14:00 23.6° 1012.6 hPa 2.5 m/s 2.0 mm
20:00 21.3° 1012.7 hPa 1.5 m/s 1.4 mm
 05:09     21:06    Daglengte: 15:57 Woensdag 03 Jul
02:00 15.4° 1013.7 hPa 1.1 m/s 1.0 mm
08:00 17.4° 1013.9 hPa 0.9 m/s 1.8 mm
14:00 22.3° 1013.0 hPa 1.1 m/s 1.9 mm
20:00 20.1° 1012.9 hPa 0.6 m/s 2.1 mm
 05:10     21:06    Daglengte: 15:56 Donderdag 04 Jul
02:00 14.7° 1014.0 hPa 1.0 m/s 2.9 mm
08:00 16.6° 1014.8 hPa 1.5 m/s 1.7 mm
14:00 22.6° 1014.0 hPa 1.7 m/s 0.8 mm
20:00 20.5° 1014.0 hPa 0.8 m/s 1.1 mm
 05:10     21:06    Daglengte: 15:56 Vrijdag 05 Jul
02:00 14.1° 1015.5 hPa 0.9 m/s 0.6 mm
08:00 16.9° 1016.1 hPa 1.5 m/s 1.1 mm
FMI Hirlam - 7.5 km EWN WRFDA - 12 km DWD ICON - 7 km GFS - 25 km Basiskaart






























































Updatetijd (Europe/Amsterdam) Resolutie Lengte Stap
FMI Hirlam 07:00, 13:00, 19:00, 01:00 7.5 km 49h 1h
EWN WRFDA 10:00, 16:00, 22:00, 04:00 12 km 73h 1h
DWD ICON 06:00, 12:00, 18:00, 00:00 7 km 75h 1h
GFS 08:45, 14:45, 20:45, 02:45 25 km 237h 3h
30+ mm
25-30 mm
20-25 mm
15-20 mm
10-15 mm
6-10 mm
4-6 mm
2-4 mm
1-2 mm
0.5-1 mm
0.2-0.5 mm
0.1-0.2 mm
30+ mm
25-30 mm
20-25 mm
15-20 mm
10-15 mm
6-10 mm
4-6 mm
2-4 mm
1-2 mm
0.5-1 mm
0.2-0.5 mm
0.1-0.2 mm
Sneeuwval
Natte sneeuw
Hagel
Vorst
30+ mm
25-30 mm
20-25 mm
15-20 mm
10-15 mm
6-10 mm
4-6 mm
2-4 mm
1-2 mm
0.5-1 mm
0.2-0.5 mm
0.1-0.2 mm
Sneeuwval
Natte sneeuw
Hagel
Vorst
Onweer
50 mm
40 mm
30 mm
26 mm
22 mm
18 mm
14 mm
10 mm
9 mm
8 mm
7 mm
6 mm
5 mm
4.5 mm
4 mm
3.5 mm
3 mm
2.5 mm
2 mm
1.5 mm
1 mm
0.8 mm
0.6 mm
0.4 mm
0.2 mm
0.05 mm
35°
30°
25°
20°
15°
10°
-5°
-10°
-15°
-20°
-25°
-30°
-35°
120> km/h
105 km/h
90 km/h
75 km/h
60 km/h
50 km/h
40 km/h
30 km/h
20 km/h
10 km/h
0 km/h
2600 J/kg
2400 J/kg
2200 J/kg
2000 J/kg
1800 J/kg
1600 J/kg
1400 J/kg
1200 J/kg
1000 J/kg
800 J/kg
600 J/kg
400 J/kg
200 J/kg
70 dBZ
65 dBZ
60 dBZ
55 dBZ
50 dBZ
45 dBZ
40 dBZ
35 dBZ
30 dBZ
25 dBZ
20 dBZ
15 dBZ
10 dBZ
5 dBZ
-1 K
-2 K
-3 K
-4 K
-5 K
-6 K
-7 K
-8 K
-9 K
950 m²/s²
900 m²/s²
850 m²/s²
800 m²/s²
750 m²/s²
700 m²/s²
650 m²/s²
600 m²/s²
550 m²/s²
500 m²/s²
450 m²/s²
400 m²/s²
350 m²/s²
300 m²/s²
250 m²/s²
200 m²/s²
150 m²/s²
100 m²/s²
46 m/s
44 m/s
42 m/s
40 m/s
38 m/s
36 m/s
34 m/s
32 m/s
30 m/s
28 m/s
26 m/s
24 m/s
22 m/s
20 m/s
16 m/s
12 m/s
8 m/s
4 m/s
30 m/s
28 m/s
26 m/s
24 m/s
22 m/s
20 m/s
18 m/s
16 m/s
14 m/s
12 m/s
10 m/s
8 m/s
6 m/s
4 m/s
2 m/s
3.0
2.8
2.6
2.4
2.2
2.0
1.8
1.6
1.4
1.2
1.0
0.8
0.6
0.4
0.2
15
14
13
12
11
10
9
8
7
6
5
4
3
2
1
90%
80%
70%
60%
50%
40%
30%
20%
10%
42
40
38
36
34
32
30
28
26
24
22
20
18
16
14
12
90+ cm
80-90 cm
70-80 cm
60-70 cm
50-60 cm
40-50 cm
30-40 cm
20-30 cm
10-20 cm
1-10 cm
Sneeuwval
Natte sneeuw
Regen
>120 mm
115 mm
110 mm
105 mm
100 mm
95 mm
90 mm
85 mm
80 mm
75 mm
70 mm
65 mm
60 mm
55